User: anonymous
Location: Unspecified
(0.0000°N, 0.0000°E)
Time: 13:22:38
(UTC+00:00)
Language:

deb r/b Ablestar - Orbit

View from above orbital plane
View from above orbital plane
View from above satellite
View from above satellite

Ground track
Ground track

The orbit data is extracted from the following two-line orbital elements,

1 00335U 61015DM  14234.11840418  .00000507  00000-0  30004-3 0  2721
2 00335 066.8457 338.3403 0035506 127.6212 297.7447 14.15332432715633
Epoch (UTC): 22 August 2014 02:50:30
Eccentricity: 0.0035506
inclination: 66.8457°
perigee height: 815 km
apogee height: 867 km
right ascension of ascending node: 338.3403°
argument of perigee: 127.6212°
revolutions per day: 14.15332432
mean anomaly at epoch: 297.7447°
orbit number at epoch: 71563

The dashed part of the orbit path shows where the satellite is in the earth's shadow,  

DLR